| time (UTC) | temp F | wind direction | speed MPH | gust MPH | rain 1hr in | rain 24hr in | rain mn in | humidity % | barometer mb |
| 20260901121512 | 75 | 268 | 0.0 | 0.0 | 0.00 | 0.00 | 0.00 | 99 | 1017.7 |
| 20260901120038 | 74 | 229 | 0.0 | 0.0 | 0.00 | 0.00 | 0.00 | 99 | 1017.5 |
| 20260901114607 | 74 | 248 | 0.0 | 0.0 | 0.00 | 0.00 | 0.00 | 99 | 1017.3 |
| 20260901114504 | 74 | 248 | 0.0 | 0.0 | 0.00 | 0.00 | 0.00 | 99 | 1017.4 |
| 20260901113024 | 73 | 245 | 0.0 | 0.0 | 0.00 | 0.00 | 0.00 | 99 | 1017.4 |
| 20260901111544 | 73 | 245 | 0.0 | 0.0 | 0.00 | 0.00 | 0.00 | 99 | 1017.3 |
| 20260901110010 | 73 | 231 | 0.0 | 0.0 | 0.00 | 0.00 | 0.00 | 99 | 1017.2 |
| 20260901104536 | 73 | 218 | 0.0 | 1.0 | 0.00 | 0.00 | 0.00 | 99 | 1017.0 |
| 20260901103101 | 73 | 225 | 0.0 | 1.0 | 0.00 | 0.00 | 0.00 | 98 | 1017.0 |
| 20260901101522 | 74 | 210 | 0.0 | 0.0 | 0.00 | 0.00 | 0.00 | 98 | 1016.9 |
| 20260901100043 | 74 | 209 | 0.0 | 0.0 | 0.00 | 0.00 | 0.00 | 98 | 1016.9 |
| 20260901094514 | 74 | 210 | 0.0 | 0.0 | 0.00 | 0.00 | 0.00 | 98 | 1016.8 |
| 20260901093030 | 74 | 210 | 0.0 | 0.0 | 0.00 | 0.00 | 0.00 | 99 | 1016.9 |
| 20260901091602 | 74 | 146 | 0.0 | 0.0 | 0.00 | 0.00 | 0.00 | 98 | 1016.9 |
| 20260901090012 | 74 | 237 | 0.0 | 0.0 | 0.00 | 0.00 | 0.00 | 98 | 1017.0 |
| 20260901084537 | 74 | 237 | 0.0 | 0.0 | 0.00 | 0.00 | 0.00 | 98 | 1017.0 |
| 20260901083002 | 74 | 237 | 0.0 | 0.0 | 0.00 | 0.00 | 0.00 | 98 | 1017.1 |
| 20260901081525 | 74 | 236 | 0.0 | 0.0 | 0.00 | 0.00 | 0.00 | 98 | 1017.2 |
| 20260901080058 | 74 | 237 | 0.0 | 0.0 | 0.00 | 0.00 | 0.00 | 98 | 1017.4 |
| 20260901074512 | 75 | 237 | 0.0 | 0.0 | 0.00 | 0.00 | 0.00 | 97 | 1017.3 |
| 20260901073040 | 74 | 238 | 0.0 | 0.0 | 0.00 | 0.00 | 0.00 | 97 | 1017.4 |
| 20260901071556 | 74 | 192 | 0.0 | 0.0 | 0.00 | 0.00 | 0.00 | 97 | 1017.5 |
| 20260901070020 | 75 | 204 | 0.0 | 0.0 | 0.00 | 0.00 | 0.00 | 97 | 1017.5 |
| 20260901064540 | 75 | 207 | 0.0 | 0.0 | 0.00 | 0.00 | 0.00 | 97 | 1017.5 |
| 20260901063007 | 75 | 212 | 0.0 | 0.0 | 0.00 | 0.00 | 0.00 | 97 | 1017.7 |
| 20260901061521 | 75 | 217 | 0.0 | 0.0 | 0.00 | 0.00 | 0.00 | 96 | 1017.6 |
| 20260901060049 | 75 | 217 | 0.0 | 1.0 | 0.00 | 0.00 | 0.00 | 96 | 1017.8 |
| 20260901054509 | 75 | 217 | 0.0 | 0.0 | 0.00 | 0.00 | 0.00 | 96 | 1018.1 |
| 20260901053037 | 75 | 221 | 0.0 | 0.0 | 0.00 | 0.00 | 0.00 | 96 | 1018.0 |
| 20260901051559 | 75 | 221 | 0.0 | 0.0 | 0.00 | 0.00 | 0.00 | 95 | 1018.1 |
| 20260901050021 | 75 | 221 | 0.0 | 0.0 | 0.00 | 0.00 | 0.00 | 94 | 1018.2 |
| 20260901044539 | 76 | 210 | 0.0 | 0.0 | 0.00 | 0.00 | 0.00 | 93 | 1018.1 |
| 20260901043005 | 76 | 214 | 0.0 | 3.0 | 0.00 | 0.00 | 0.00 | 93 | 1017.8 |
| 20260901041530 | 76 | 202 | 0.0 | 2.0 | 0.00 | 0.00 | 0.00 | 92 | 1017.7 |
| 20260901040043 | 76 | 210 | 0.0 | 4.0 | 0.00 | 0.00 | 0.00 | 91 | 1017.8 |
| 20260901034601 | 76 | 149 | 0.0 | 4.0 | 0.00 | 0.00 | 0.00 | 90 | 1017.8 |
| 20260901033027 | 76 | 165 | 0.0 | 2.0 | 0.00 | 0.00 | 0.00 | 90 | 1017.5 |
| 20260901031545 | 76 | 137 | 0.0 | 0.0 | 0.00 | 0.00 | 0.00 | 94 | 1017.7 |
| 20260901030005 | 76 | 158 | 0.0 | 0.0 | 0.00 | 0.00 | 0.00 | 92 | 1017.6 |
| 20260901024533 | 77 | 158 | 0.0 | 0.0 | 0.00 | 0.00 | 0.00 | 89 | 1017.6 |
| 20260901023056 | 77 | 158 | 0.0 | 0.0 | 0.00 | 0.00 | 0.00 | 89 | 1017.5 |
| 20260901021525 | 77 | 158 | 0.0 | 0.0 | 0.00 | 0.00 | 0.00 | 90 | 1017.6 |
| 20260901020045 | 77 | 158 | 0.0 | 0.0 | 0.00 | 0.00 | 0.00 | 89 | 1017.7 |
| 20260901014511 | 78 | 158 | 0.0 | 0.0 | 0.00 | 0.00 | 0.00 | 89 | 1017.5 |
| 20260901013033 | 79 | 158 | 0.0 | 0.0 | 0.00 | 0.00 | 0.00 | 85 | 1017.5 |
| 20260901011557 | 79 | 158 | 0.0 | 0.0 | 0.00 | 0.00 | 0.00 | 84 | 1017.4 |
| 20260901010037 | 80 | 207 | 0.0 | 0.0 | 0.00 | 0.00 | 0.00 | 82 | 1017.1 |
| 20260901004543 | 80 | 207 | 0.0 | 0.0 | 0.00 | 0.00 | 0.00 | 82 | 1017.0 |
| 20260901003011 | 80 | 207 | 0.0 | 0.0 | 0.00 | 0.00 | 0.00 | 82 | 1016.8 |
| 20260901001532 | 81 | 207 | 0.0 | 0.0 | 0.00 | 0.00 | 0.00 | 81 | 1016.8 |
| 20260831234521 | 84 | 207 | 0.0 | 0.0 | 0.00 | 0.00 | 0.00 | 76 | 1016.8 |
| 20260831233046 | 88 | 207 | 0.0 | 0.0 | 0.00 | 0.00 | 0.00 | 72 | 1016.7 |
| 20260831231505 | 91 | 207 | 0.0 | 0.0 | 0.00 | 0.00 | 0.00 | 68 | 1016.6 |
| 20260831230032 | 94 | 207 | 0.0 | 0.0 | 0.00 | 0.00 | 0.00 | 59 | 1016.7 |
| 20260831224551 | 93 | 207 | 0.0 | 0.0 | 0.00 | 0.00 | 0.00 | 61 | 1016.4 |
| 20260831223024 | 93 | 207 | 0.0 | 1.0 | 0.00 | 0.00 | 0.00 | 61 | 1016.5 |
| 20260831221542 | 93 | 165 | 0.0 | 2.0 | 0.00 | 0.00 | 0.00 | 57 | 1016.5 |
| 20260831220009 | 94 | 157 | 0.0 | 2.0 | 0.00 | 0.00 | 0.00 | 53 | 1016.7 |
| 20260831214540 | 94 | 233 | 0.0 | 1.0 | 0.00 | 0.00 | 0.00 | 51 | 1016.7 |
| 20260831213046 | 94 | 153 | 1.0 | 4.0 | 0.00 | 0.00 | 0.00 | 51 | 1016.8 |
| 20260831211517 | 95 | 116 | 0.0 | 3.0 | 0.00 | 0.00 | 0.00 | 48 | 1017.0 |
| 20260831210040 | 94 | 206 | 0.0 | 3.0 | 0.00 | 0.00 | 0.00 | 49 | 1017.1 |
| 20260831204503 | 94 | 171 | 0.0 | 4.0 | 0.00 | 0.00 | 0.00 | 55 | 1017.2 |
| 20260831203020 | 94 | 233 | 0.0 | 4.0 | 0.00 | 0.00 | 0.00 | 57 | 1017.2 |
| 20260831201543 | 93 | 288 | 0.0 | 4.0 | 0.00 | 0.00 | 0.00 | 58 | 1017.3 |
| 20260831200002 | 93 | 86 | 0.0 | 3.0 | 0.00 | 0.00 | 0.00 | 60 | 1017.3 |
| 20260831194528 | 93 | 200 | 0.0 | 2.0 | 0.00 | 0.00 | 0.00 | 55 | 1017.5 |
| 20260831193114 | 93 | 189 | 1.0 | 4.0 | 0.00 | 0.00 | 0.00 | 55 | 1017.5 |
| 20260831191513 | 93 | 133 | 0.0 | 4.0 | 0.00 | 0.00 | 0.00 | 61 | 1017.8 |
| 20260831190038 | 92 | 164 | 0.0 | 4.0 | 0.00 | 0.00 | 0.00 | 58 | 1018.0 |
| 20260831184558 | 91 | 276 | 1.0 | 3.0 | 0.00 | 0.00 | 0.00 | 61 | 1018.1 |
| 20260831183024 | 92 | 20 | 0.0 | 2.0 | 0.00 | 0.00 | 0.00 | 61 | 1018.2 |
| 20260831181549 | 92 | 220 | 0.0 | 0.0 | 0.00 | 0.00 | 0.00 | 61 | 1018.4 |
| 20260831180009 | 90 | 233 | 1.0 | 5.0 | 0.00 | 0.00 | 0.00 | 61 | 1018.4 |
| 20260831174526 | 91 | 267 | 1.0 | 4.0 | 0.00 | 0.00 | 0.00 | 67 | 1018.6 |
| 20260831173049 | 91 | 80 | 1.0 | 4.0 | 0.00 | 0.00 | 0.00 | 71 | 1018.5 |
| 20260831171510 | 90 | 179 | 0.0 | 5.0 | 0.00 | 0.00 | 0.00 | 69 | 1018.7 |
| 20260831170035 | 89 | 111 | 0.0 | 3.0 | 0.00 | 0.00 | 0.00 | 68 | 1018.8 |
| 20260831164607 | 89 | 285 | 1.0 | 4.0 | 0.00 | 0.00 | 0.00 | 72 | 1018.8 |
| 20260831163019 | 89 | 288 | 0.0 | 4.0 | 0.00 | 0.00 | 0.00 | 70 | 1019.0 |
| 20260831161556 | 88 | 300 | 0.0 | 3.0 | 0.00 | 0.00 | 0.00 | 73 | 1019.2 |
| 20260831160106 | 87 | 223 | 0.0 | 4.0 | 0.00 | 0.00 | 0.00 | 75 | 1019.2 |
| 20260831154516 | 86 | 270 | 0.0 | 4.0 | 0.00 | 0.00 | 0.00 | 76 | 1019.3 |
| 20260831153036 | 85 | 333 | 0.0 | 5.0 | 0.00 | 0.00 | 0.00 | 79 | 1019.5 |
| 20260831151556 | 85 | 4 | 0.0 | 4.0 | 0.00 | 0.00 | 0.00 | 78 | 1019.5 |
| 20260831151504 | 85 | 336 | 0.0 | 4.0 | 0.00 | 0.00 | 0.00 | 79 | 1019.4 |
| 20260831150025 | 84 | 314 | 0.0 | 4.0 | 0.00 | 0.00 | 0.00 | 78 | 1019.4 |
| 20260831144556 | 84 | 290 | 1.0 | 4.0 | 0.00 | 0.00 | 0.00 | 79 | 1019.3 |
| 20260831143004 | 83 | 336 | 0.0 | 4.0 | 0.00 | 0.00 | 0.00 | 83 | 1019.4 |
| 20260831141528 | 82 | 319 | 2.0 | 5.0 | 0.00 | 0.00 | 0.00 | 83 | 1019.3 |
| 20260831140044 | 81 | 333 | 1.0 | 4.0 | 0.00 | 0.00 | 0.00 | 86 | 1019.3 |
| 20260831134506 | 80 | 289 | 2.0 | 4.0 | 0.00 | 0.00 | 0.00 | 87 | 1019.2 |
| 20260831133016 | 79 | 8 | 2.0 | 4.0 | 0.00 | 0.00 | 0.00 | 90 | 1019.2 |
| 20260831131554 | 78 | 288 | 1.0 | 3.0 | 0.00 | 0.00 | 0.00 | 94 | 1019.0 |
| 20260831130048 | 76 | 355 | 0.0 | 3.0 | 0.00 | 0.00 | 0.00 | 100 | 1019.2 |
| 20260831124510 | 75 | 353 | 0.0 | 2.0 | 0.00 | 0.00 | 0.00 | 100 | 1019.3 |
| 20260831123028 | 73 | 285 | 0.0 | 2.0 | 0.00 | 0.00 | 0.00 | 100 | 1019.2 |